www.pogodaiklimat.ru
Время
и дата
19:54 15.06
20:54 15.06
21:54 15.06
22:54 15.06
23:54 15.06
00:54 16.06
01:54 16.06
02:54 16.06
03:54 16.06
04:54 16.06
05:54 16.06
06:54 16.06
07:54 16.06
08:54 16.06
09:54 16.06
10:54 16.06
11:54 16.06
12:54 16.06
13:54 16.06
14:54 16.06
15:54 16.06
16:54 16.06
17:54 16.06
18:54 16.06
19:54 16.06
20:54 16.06
21:54 16.06
22:54 16.06
23:54 16.06
00:54 17.06
01:54 17.06
02:54 17.06
03:54 17.06
04:54 17.06
05:54 17.06
06:54 17.06
07:54 17.06
08:54 17.06
09:54 17.06
10:54 17.06
11:54 17.06
12:54 17.06
13:54 17.06
14:54 17.06
15:54 17.06
16:54 17.06
17:54 17.06
18:54 17.06
Ветер
(напр.,м/с)
Видим. Явления Облачность Т
(С)
Тd
(С)
f
(%)
Тe
(С)
Тes
(С)
Комфортность P
(гПа)
Po
(гПа)
Тmin
(С)
Tmax
(С)
R
(мм)
R24
(мм)
S
(см)
С 5 16 км ясно +21.1 +3.9 32 +21 +21 комфорт 1017.7 1017.3
В 2 16 км ясно +17.8 +10.6 63 +18 +18 1018.8 1018.4
С 3 16 км ясно +18.3 +6.1 45 +19 +19 1019.4 1019.0
С 4 16 км ясно +17.8 +5.6 45 +18 +18 1020.1 1019.7
С 4 16 км ясно +16.7 +5.6 48 +16 +16 1020.5 1020.1
С 4 16 км ясно +15.6 +5.6 51 +15 +15 1021.2 1020.7 +15.6 +22.2
СЗ 3 16 км ясно +15.0 +6.1 55 +14 +14 1021.7 1021.1
С 3 16 км ясно +14.4 +6.1 57 +14 +14 1021.7 1021.1
СЗ 3 16 км ясно +13.9 +6.1 59 +13 +13 1022.4 1022.1
СЗ 3 16 км 2/0 7500 m
[Ci]
+14.4 +6.1 57 +14 +14 1023.2 1022.8
СЗ 4 16 км 2/0 7500 m
[Ci]
+15.6 +6.1 53 +15 +15 1024.1 1023.8
С 5 16 км 2/0 7500 m
[Ci]
+17.2 +6.7 50 +17 +18 1024.6 1024.1 +13.9 +17.2
С 5 16 км 2/0 7500 m
[Ci]
+17.8 +6.1 46 +17 +20 1025.2 1024.8
СВ 5 16 км 2/0 7500 m
[Ci]
+18.9 +5.6 42 +19 +24 1025.1 1024.5
В 5 16 км 2/2 1200 m
[Ci]
+18.3 +8.3 52 +18 +24 1025.2 1024.8
ЮВ 6 16 км 5/2 1200 m
[Ci]
+18.3 +9.4 56 +18 +23 1025.1 1024.8
ЮВ 4 16 км 8/2 1350 m
[Ci]
+18.9 +8.9 52 +19 +28 1025.1 1024.5
В 5 16 км 8/2 1350 m
[Ci]
+18.9 +9.4 54 +19 +26 1024.5 1024.1 +17.2 +19.4
В 5 16 км 8/2 1500 m
[Ci]
+18.9 +7.8 48 +19 +26 1024.1 1023.8
В 6 16 км 8/2 1500 m
[Ci]
+18.9 +7.8 48 +19 +23 1023.9 1023.4
В 6 16 км 8/2 1500 m
[Ac Ci]
+18.9 +8.3 50 +19 +21 1023.5 1023.1
В 6 16 км 8/2 1500 m
[Ac Ci]
+18.3 +7.2 48 +18 +19 1023.2 1022.8
В 5 16 км 8/0 3600 m
[Ac Ci]
+18.3 +9.4 56 +18 +20 1023.4 1022.8
ЮВ 4 16 км 8/0 3000 m
[Ac Ci]
+17.8 +10.0 60 +18 +18 1023.4 1023.1 +17.8 +19.4
Ю 4 16 км 8/0 3300 m
[Ac Ci]
+17.2 +10.0 63 +17 +17 1023.5 1023.1
Ю 5 16 км 8/0 3900 m
[Ac Ci]
+17.8 +11.1 65 +17 +17 1023.7 1023.1
Ю 6 16 км 8/0 3900 m
[Ac Ci]
+17.2 +11.1 67 +16 +16 1023.5 1023.1
ЮЗ 4 16 км 8/0 3900 m
[Ac Ci]
+16.7 +11.7 72 +16 +16 1023.3 1022.8
ЮЗ 4 16 км 8/0 3900 m
[Ac Ci]
+16.7 +12.2 75 +16 +16 1023.4 1022.8
Ю 4 16 км 8/0 3900 m
[Ac Ci]
+16.7 +11.7 72 +16 +16 1023.4 1022.8 +16.7 +18.3
ЮЗ 4 16 км 10/0 3900 m
[Ac]
+16.7 +11.7 72 +16 +16 1023.4 1022.8
ЮЗ 3 16 км 8/0 3900 m
[Ac]
+16.1 +11.1 72 +16 +16 1023.5 1023.1
ЮЗ 4 16 км 5/0 3900 m
[Ac Ci]
+15.6 +11.1 75 +15 +15 1023.8 1023.1
Ю 4 16 км 8/0 3900 m
[Ac Ci]
+15.6 +12.2 80 +15 +15 1023.4 1022.8
ЮЗ 4 16 км 8/2 1800 m
[Ac Ci]
+16.7 +13.3 80 +16 +16 1024.0 1023.4
Ю 4 16 км 8/2 1800 m
[Ac Ci]
+17.8 +13.9 78 +18 +18 1023.9 1023.4 +15.0 +17.8
Ю 5 16 км 5/2 1800 m
[Ac Ci]
+19.4 +15.0 76 +21 +23 комфорт 1023.4 1022.8
Ю 6 16 км 8/2 1800 m
[Ac Ci]
+22.2 +15.0 64 +26 +28 душно 1023.0 1022.4
Ю 6 16 км 8/0 2100 m
[Ac Ci]
+23.3 +14.4 57 +27 +30 душно 1022.5 1022.1
Ю 8 16 км 8/2 1950 m
[Ac Ci]
+25.0 +14.4 52 +28 +29 жарко 1021.2 1020.7
Ю 7 16 км 8/2 1950 m
[Ac Ci]
+26.1 +15.6 52 +29 +32 жарко 1020.6 1020.1
Ю 6 16 км 8/2 1950 m
[Ac Ci]
+26.7 +16.1 52 +30 +34 душно 1020.8 1020.4 +17.8 +27.2
Ю 6
{10}
16 км 10/2 1500 m
[Ac Ci]
+26.1 +16.1 54 +29 +32 жарко 1020.1 1019.7
Ю 7 16 км 10/2 1500 m
[Ac Ci]
+25.6 +16.1 56 +29 +31 душно 1019.4 1018.7
Ю 6
{11}
16 км 8/2 1350 m
[Ac Ci]
+25.6 +16.1 56 +29 +31 душно 1019.6 1019.0
ЮЗ 6 16 км 8/2 1350 m
[Ac Ci]
+25.6 +16.1 56 +29 +30 душно 1019.8 1019.4
Ю 6 16 км 8/2 1500 m
[Ac Ci]
+24.4 +16.1 60 +28 +28 душно 1019.8 1019.4
Ю 5 16 км 8/2 1500 m
[Ac Ci]
+23.9 +15.6 60 +27 +27 жарко 1020.3 1019.7 +23.9 +27.2
Местоположение метеостанции Logan International Airport: широта 42.3606 долгота -71.0106 высота над уровнем моря 4 м.
В архиве по умолчанию представлена погода в Бостоне за последние 1-2 суток. Обновление информации о фактической погоде в базе происходит ежечасно! Архивные данные за месяц целиком и за предыдущие месяцы Вы можете получить, выбрав интересующий диапазон дат из раскрывающегося списка и нажав кнопку "Ввод!".
Внимание! Архив погоды МЕТАР в базе сайта по станциям, не включенным в климатический монитор, хранится не более 60 дней. Нет смысла пытаться выбрать более раннюю дату.
*Определитесь, кто Вы:
Внимание! Время в таблицах - местное (без учета летнего времени). Для получения всемирного времени необходимо вычесть поправку, которая равна -5 ч.
Смотрите также архив погоды в соседних городах и на ближайших метеорологических станциях:
Пояснения к столбцам:
  • Ветер - указаны скорость ветра в м/с - средняя за 10 мин, порывы в срок и между сроками (в фигурных скобках) и направление, откуда дует ветер: С - северный,
  • СВ - северо-восточный, В - восточный, ЮВ - юго-восточный, Ю - южный, ЮЗ - юго-западный, З - западный, СЗ - северо-западный.
  • Видимость - горизонтальная дальность видимости в метрах или километрах. При видимости от 1 до 10 км при отсутствии осадков обычно наблюдается дымка, при ухудшении видимости до 1 км и менее - туман. В сухую погоду видимость может ухудшаться дымом, пылью или мглою.
  • Явления - указаны атмосферные явления, наблюдавшиеся в срок или в последний час перед сроком; фигурными скобками обозначены явления, наблюдавшиеся между сроками (за 1-3 часа до срока); квадратными скобками обозначены град или гололедные отложения с указанием их диаметра в мм.
  • Облачность - указаны через наклонную черту общая и нижняя облачность в баллах и высота нижней границы облаков в метрах; квадратными скобками обозначены формы облаков: Ci - перистые, Cs - перисто-слоистые, Cc - перисто-кучевые, Ac - высококучевые, As - высокослоистые, Sc - слоисто-кучевые, Ns - слоисто-дождевые, Cu - кучевые, Cb - кучево-дождевые. Подробнее классификацию облаков см. в Атласе облаков (PDF).
  • T - Температура воздуха - температура, измеренная на высоте 2 м над землей.
  • Td - Температура точки росы - температура, при понижении до которой содержащийся в воздухе водяной пар достигнет насыщения.
  • f - Относительная влажность воздуха - влажноcть воздуха, измеренная на высоте 2 м над землей.
  • Te - Эффективная температура - температура, которую ощущает одетый по сезону человек в тени. Характеристика душности погоды. При расчете учитывается влияние влажности воздуха и скорости ветра на теплоощущения человека.
  • Tes - Эффективная температура на солнце - температура, которую ощущает человек, с поправкой на солнечный нагрев. Характеристика знойности погоды. Зависит от высоты солнца над горизонтом, облачности и скорости ветра. Ночью, в пасмурную погоду, а также при ветре 12 м/с и более поправка равна нулю.
  • P - Атмосферное давление - приведенное к уровню моря атмосферное давление.
  • Po - Атмосферное давление - измеренное на уровне метеостанции атмосферное давление.
  • Tmin - Минимальная температура - минимум температуры воздуха на высоте 2 м над землей.
  • Tmax - Максимальная температура - максимум температуры воздуха на высоте 2 м над землей.
  • R - Количество осадков - Количество выпавших осадков за период времени, мм. При наведении курсора мыши на число - период времени, за который выпало указанное количество осадков.
  • R24 - Количество осадков - Количество выпавших осадков за 24 часа, мм.
  • S - Снежный покров - Высота снежного покрова, см. При наведении курсора мыши на число - состояние снежного покрова и степень покрытия местности в баллах.